Location: Newark
(47.4000°N, 7.5833°E)
Time: 10:28:43
(UTC+00:00)

N. Korean satellite - Pass Details

Date: 05 February 2020
Orbit: 456 x 505 km, 97.2° (Epoch: 19 February)

Event Time Altitude Azimuth Distance (km) Brightness Sun altitude
Rises 05:41:18 0° 8° (N) 2,578 10.2 -12.1°
Reaches altitude 10° 05:43:23 10° 4° (N) 1,699 9.3 -11.8°
Maximum altitude 05:46:59 56° 286° (WNW) 602 6.7 -11.2°
Drops below altitude 10° 05:50:35 10° 208° (SSW) 1,706 9.2 -10.6°
Sets 05:52:41 0° 204° (SSW) 2,589 10.1 -10.3°
